Station OOUH1 - 1612340 - Honolulu, HI Image indicating link to RSS feed of recent meteorological observations for station OOUH1


Conditions at OOUH1 as of
(11:54 pm HAST on 07/12/2024)
0954 GMT on 07/13/2024:
     

Click on the graph icon in the table below to see a time series plot of the last five days of that observation.

5-day plot - Wind Direction Wind Direction (WDIR): E ( 100 deg true )
5-day plot - Wind Speed Wind Speed (WSPD): 4.1 kts
5-day plot - Wind Gust Wind Gust (GST): 7.0 kts
5-day plot - Atmospheric Pressure Atmospheric Pressure (PRES):30.09 in
5-day plot - Water Temperature Water Temperature (WTMP): 79.9 °F
5-day plot - Wind Speed at 10 Meters Wind Speed at 10 meters (WSPD10M): 3.9 kts
5-day plot - Wind Speed at 20 Meters Wind Speed at 20 meters (WSPD20M): 3.9 kts
5-day plot -  Wind Speed, Wind Gust and Atmospheric Pressure Combined plot of Wind Speed, Gust, and Air Pressure
NOS Water Level Observation Network Water Level
Previous observations
TIME
(HAST)
5-day plot - Wind Direction
WDIR
 
5-day plot - Wind Speed
WSPD
kts
5-day plot - Wind Gust
GST
kts
5-day plot - Wave Height
WVHT
ft
5-day plot - Dominant Wave Period
DPD
sec
5-day plot - Average Wave Period
APD
sec
5-day plot - Mean Wave Direction
MWD
 
5-day plot - Atmospheric Pressure
PRES
in
5-day plot - Pressure Tendency
PTDY
in
5-day plot - Air Temperature
ATMP
°F
5-day plot - Water Temperature
WTMP
°F
5-day plot - Dew Point
DEWP
°F
5-day plot - Salinity
SAL
psu
5-day plot - Visibility
VIS
nmi
5-day plot - Tide (above MLLW)
TIDE
ft
2024-07-12 11:48 pm E 1.9 4.1----30.09-- 79.9----
2024-07-12 11:42 pm SE 4.1 6.0----30.08-- 79.9----
2024-07-12 11:36 pmESE 2.9 6.0----30.09-- 79.9----
2024-07-12 11:30 pmESE 2.9 7.0----30.09- 77.5 79.9----
2024-07-12 11:24 pm E 1.9 8.0----30.09- 77.4 79.9----
2024-07-12 11:18 pm NE 1.0 4.1----30.09- 76.6 79.9----
2024-07-12 11:12 pmSSE 1.9 5.1----30.09- 76.6 79.9----
2024-07-12 11:06 pmESE 5.1 8.9----30.09- 76.5 79.9----
2024-07-12 11:00 pm E 4.1 9.9----30.09+0.03 76.6 79.9----
2024-07-12 10:54 pm E 5.1 7.0----30.09- 77.9 79.9----
2024-07-12 10:48 pm E 2.9 8.9----30.09- 78.8 79.9----
2024-07-12 10:42 pm N 1.9 7.0----30.09- 78.8 79.9----
2024-07-12 10:36 pmSSE 1.0 4.1----30.09- 78.8 79.9----
2024-07-12 10:30 pmESE 2.9 7.0----30.09- 78.6 79.9----
2024-07-12 10:24 pm- 0.0 5.1----30.10- 78.8 80.1----
2024-07-12 10:18 pmENE 4.1 7.0----30.10- 78.8 80.1----
2024-07-12 10:12 pmESE 1.0 9.9----30.10- 78.8 80.1----
2024-07-12 10:06 pm NE 8.0 14.0----30.10- 78.8 80.1----
2024-07-12 10:00 pm NE 8.0 15.0------ 78.8 80.1----
2024-07-12 09:54 pm NE 9.9 17.1------ 79.0 80.1----
2024-07-12 09:48 pmENE 2.9 9.9----30.09- 79.2 80.1----
2024-07-12 09:42 pmENE 5.1 12.0----30.09- 79.2 80.1----
2024-07-12 09:36 pm NE 6.0 12.0----30.09- 79.3 80.1----
2024-07-12 09:30 pmENE 6.0 15.0----30.08- 79.3 80.1----
2024-07-12 09:24 pm NE 6.0 12.0----30.08- 79.3 80.1----
2024-07-12 09:18 pmENE 6.0 15.0----30.08- 79.3 80.1----
2024-07-12 09:12 pmENE 6.0 15.0----30.08- 79.3 80.1----
2024-07-12 09:06 pm NE 6.0 18.1----30.08- 79.5 80.1----
2024-07-12 09:00 pm NE 6.0 15.9----30.08+0.04 79.5 80.1----
2024-07-12 08:54 pm NE 5.1 17.1----30.08- 79.3 80.1----
2024-07-12 08:48 pm NE 6.0 15.9----30.08- 79.3 80.1----
2024-07-12 08:42 pmENE 8.0 13.0----30.08- 79.3 80.1----
2024-07-12 08:36 pmENE 5.1 9.9----30.08- 79.2 80.1----
2024-07-12 08:30 pmENE 4.1 15.0----30.07- 79.3 80.1----
2024-07-12 08:24 pmENE 5.1 17.1----30.07- 79.5 80.1----
2024-07-12 08:18 pm NE 5.1 11.1----30.07- 79.5 80.1----
2024-07-12 08:12 pm NE 5.1 11.1----30.07- 79.3 80.1----
2024-07-12 08:06 pm E 6.0 13.0----30.07- 79.3 80.1----
2024-07-12 08:00 pmESE 5.1 13.0----30.06+0.04 79.0 80.1----
2024-07-12 07:54 pm NE 6.0 9.9----30.06- 79.2 80.1----
2024-07-12 07:48 pmENE 4.1 8.9----30.06- 79.3 80.2----
2024-07-12 07:42 pm NE 6.0 11.1----30.06- 79.3 80.2----
2024-07-12 07:36 pmENE 8.0 13.0----30.06- 79.5 80.2----
2024-07-12 07:30 pmENE 5.1 9.9----30.05- 79.5 80.2----
2024-07-12 07:24 pmENE 11.1 17.1----30.06- 79.7 80.2----
2024-07-12 07:18 pmENE 8.0 13.0----30.05- 79.5 80.2----
2024-07-12 07:12 pmENE 7.0 15.0----30.05- 79.7 80.2----
2024-07-12 07:06 pmENE 6.0 12.0----30.05- 79.9 80.2----
2024-07-12 07:00 pm NE 7.0 13.0----30.05+0.03 80.1 80.2----
2024-07-12 06:54 pmENE 8.0 15.0----30.05- 80.1 80.2----
2024-07-12 06:48 pm NE 7.0 13.0----30.05- 80.4 80.2----
2024-07-12 06:42 pmENE 8.0 12.0----30.05- 80.4 80.2----
2024-07-12 06:36 pm E 6.0 13.0----30.04- 80.6 80.2----
2024-07-12 06:30 pm NE 7.0 9.9----30.04- 80.6 80.2----
2024-07-12 06:24 pmNNE 5.1 9.9----30.04- 80.8 80.2----
2024-07-12 06:18 pmENE 4.1 8.0----30.04- 80.6 80.2----
2024-07-12 06:12 pmENE 4.1 9.9----30.03- 80.8 80.2----
2024-07-12 06:06 pm E 5.1 15.0----30.03- 81.0 80.2----
2024-07-12 06:00 pm NE 8.9 15.0----30.03+0.01 80.6 80.2----
2024-07-12 05:54 pmENE 8.9 14.0----30.03- 80.2 80.2----
2024-07-12 05:48 pm E 5.1 19.0----30.03- 80.4 80.2----
2024-07-12 05:42 pmENE 6.0 14.0----30.03- 80.8 80.2----
2024-07-12 05:36 pm E 8.0 15.9----30.03- 80.4 80.2----
2024-07-12 05:30 pmESE 6.0 14.0----30.02- 79.9 80.2----
2024-07-12 05:24 pm NE 8.0 15.0----30.02- 79.7 80.2----
2024-07-12 05:18 pm E 6.0 12.0----30.03- 79.5 80.2----
2024-07-12 05:12 pmENE 5.1 9.9----30.02- 80.1 80.2----
2024-07-12 05:06 pmESE 1.9 8.0----30.02- 80.2 80.2----
2024-07-12 05:00 pmENE 6.0 13.0----30.02-0.02 79.9 80.2----
2024-07-12 04:54 pmENE 8.9 13.0----30.03- 79.7 80.2----
2024-07-12 04:48 pmESE 6.0 12.0----30.02- 79.9 80.2----
2024-07-12 04:42 pm SE 7.0 11.1----30.02- 79.9 80.2----
2024-07-12 04:36 pmESE 6.0 12.0----30.02- 79.0 80.2----
2024-07-12 04:30 pmESE 6.0 8.9----30.03- 79.3 80.2----
2024-07-12 04:24 pm SE 1.0 8.9----30.02- 79.5 80.2----
2024-07-12 04:18 pmENE 6.0 13.0----30.02- 78.8 80.2----
2024-07-12 04:12 pm E 7.0 13.0----30.02- 78.6 80.2----
2024-07-12 04:06 pm E 6.0 12.0----30.02- 78.4 80.2----
2024-07-12 04:00 pm E 6.0 12.0----30.02-0.03 79.2 80.2----
2024-07-12 03:54 pm E 4.1 8.0----30.02- 79.3 80.2----
2024-07-12 03:48 pmESE 1.9 12.0----30.02- 79.3 80.2----
2024-07-12 03:42 pmESE 4.1 8.0----30.02- 79.3 80.2----
2024-07-12 03:36 pm E 6.0 14.0----30.03- 78.8 80.2----
2024-07-12 03:30 pm E 5.1 9.9----30.02- 80.1 80.2----
2024-07-12 03:24 pm E 5.1 12.0----30.02- 80.8 80.2----
2024-07-12 03:18 pm E 6.0 15.0----30.02- 80.6 80.2----
2024-07-12 03:12 pm E 6.0 15.0----30.02- 80.8 80.2----
2024-07-12 03:06 pm NE 7.0 12.0----30.02- 81.1 80.1----
2024-07-12 03:00 pmENE 4.1 12.0----30.03-0.03 81.1 80.1----
2024-07-12 02:54 pm E 5.1 11.1----30.03- 82.0 80.1----
2024-07-12 02:48 pm NE 2.9 11.1----30.03- 82.2 80.1----
2024-07-12 02:42 pm NE 5.1 9.9----30.03- 81.7 80.1----
2024-07-12 02:36 pmENE 8.0 12.0----30.03- 82.0 79.9----
2024-07-12 02:30 pmESE 5.1 11.1----30.03- 81.9 79.9----
2024-07-12 02:24 pm NE 8.0 15.9----30.03- 81.5 79.9----
2024-07-12 02:18 pm NE 5.1 11.1----30.04- 81.9 79.7----
2024-07-12 02:12 pmENE 5.1 12.0----30.04- 81.5 79.7----
2024-07-12 02:06 pm E 5.1 9.9----30.04- 81.5 79.7----
2024-07-12 02:00 pmENE 5.1 13.0----30.04-0.03 81.7 79.7----
2024-07-12 01:54 pmENE 8.9 12.0----30.04- 81.7 79.7----
2024-07-12 01:48 pm E 5.1 12.0----30.04- 82.2 79.7----
2024-07-12 01:42 pm E 6.0 11.1----30.04- 82.4 79.7----
2024-07-12 01:36 pm E 6.0 14.0----30.05- 81.3 79.7----
2024-07-12 01:30 pmESE 6.0 11.1----30.04- 81.9 79.7----
2024-07-12 01:24 pm E 2.9 14.0----30.05- 82.0 79.7----
2024-07-12 01:00 pmNNE 2.9 9.9----30.05-0.04 82.8 79.7----
2024-07-12 12:54 pm E 6.0 9.9----30.05- 81.9 79.7----
2024-07-12 12:48 pmESE 4.1 14.0----30.05-- 79.7----
2024-07-12 12:42 pmENE 7.0 13.0----30.05-- 79.7----
2024-07-12 12:36 pmENE 6.0 12.0----30.05-- 79.7----
2024-07-12 12:30 pmENE 6.0 13.0----30.05- 82.4 79.7----
2024-07-12 12:24 pmENE 6.0 15.9----30.05- 82.0 79.7----
2024-07-12 12:18 pmESE 8.0 12.0----30.06-- 79.7----
2024-07-12 12:12 pmENE 6.0 15.0----30.06-- 79.7----
2024-07-12 12:06 pmENE 7.0 14.0----30.06-- 79.7----
2024-07-12 12:00 pmENE 6.0 15.0----30.06-0.03 82.9 79.7----
2024-07-12 11:54 amNNE 7.0 15.0----30.06- 82.6 79.7----
2024-07-12 11:48 amENE 8.0 17.1----30.06- 81.7 79.7----
2024-07-12 11:42 amENE 7.0 14.0----30.06- 82.4 79.7----
2024-07-12 11:36 amENE 4.1 9.9----30.06- 82.2 79.7----
2024-07-12 11:30 am E 1.9 14.0----30.06- 82.4 79.7----
2024-07-12 11:24 am NE 7.0 13.0----30.07- 82.2 79.7----
2024-07-12 11:18 amESE 5.1 9.9----30.07- 81.7 79.7----
2024-07-12 11:12 amNNE 2.9 12.0----30.07- 81.1 79.7----
2024-07-12 11:06 amENE 7.0 12.0----30.07- 81.3 79.7----
2024-07-12 11:00 am E 5.1 13.0----30.07-0.01 81.9 79.5----
2024-07-12 10:54 amESE 5.1 12.0----30.07- 82.0 79.5----
2024-07-12 10:48 amENE 4.1 9.9----30.07- 81.7 79.5----
2024-07-12 10:42 am E 4.1 8.0----30.07- 81.5 79.5----
2024-07-12 10:36 am NE 1.0 8.0----30.07- 82.2 79.5----
2024-07-12 10:30 am NE 6.0 8.9----30.07- 81.9 79.5----
2024-07-12 10:24 am NE 4.1 7.0----30.07- 81.3 79.5----
2024-07-12 10:18 am NE 4.1 6.0----30.08- 81.0 79.5----
2024-07-12 10:12 am E 4.1 8.9----30.08- 81.0 79.5----
2024-07-12 10:06 am E 1.9 7.0----30.08- 81.9 79.5----
2024-07-12 10:00 amENE 6.0 11.1----30.08+0.01 80.4 79.5----
2024-07-12 09:54 amESE 6.0 9.9----30.08- 81.3 79.5----
2024-07-12 09:48 am NE 5.1 9.9----30.08- 81.0 79.5----
2024-07-12 09:42 am NE 6.0 12.0----30.08- 80.6 79.5----
2024-07-12 09:36 am NE 5.1 12.0----30.08- 80.4 79.5----
2024-07-12 09:30 am E 2.9 9.9----30.09- 81.1 79.5----
2024-07-12 09:24 amESE 5.1 9.9----30.09- 80.1 79.5----
2024-07-12 09:18 am NE 4.1 12.0----30.09- 80.1 79.5----
2024-07-12 09:12 amENE 6.0 11.1----30.09- 79.5 79.5----
2024-07-12 09:06 amENE 4.1 9.9----30.09- 79.3 79.5----
2024-07-12 09:00 am E 5.1 8.0----30.09+0.03 79.3 79.5----
2024-07-12 08:54 am NE 2.9 7.0----30.09- 79.5 79.5----
2024-07-12 08:48 am E 6.0 12.0----30.09- 79.3 79.5----
2024-07-12 08:42 am NE 4.1 9.9----30.08- 79.3 79.5----
2024-07-12 08:36 amENE 5.1 8.0----30.09- 79.7 79.5----
2024-07-12 08:30 am S 1.9 2.9----30.08- 80.1 79.5----
2024-07-12 08:24 am NE 1.9 2.9----30.08- 80.4 79.5----
2024-07-12 08:18 amENE 1.9 2.9----30.08- 80.8 79.5----
2024-07-12 08:12 am- 0.0 2.9----30.08- 80.2 79.5----
2024-07-12 08:06 am- 0.0 5.1----30.08- 79.9 79.5----
2024-07-12 08:00 amNNE 2.9 6.0----30.08+0.04 79.9 79.5----
2024-07-12 07:54 am E 5.1 8.0----30.08- 79.7 79.5----
2024-07-12 07:48 am NE 6.0 8.0----30.08- 79.5 79.5----
2024-07-12 07:42 am E 5.1 8.0----30.08- 79.2 79.5----
2024-07-12 07:36 am E 5.1 8.9----30.08- 79.2 79.5----
2024-07-12 07:30 am E 5.1 8.0----30.08- 79.0 79.5----
2024-07-12 07:24 amENE 1.0 6.0----30.08- 79.0 79.5----
2024-07-12 07:18 am NE 4.1 8.0----30.08- 78.8 79.5----
2024-07-12 07:12 amENE 2.9 8.9----30.08- 78.8 79.5----
2024-07-12 07:06 am NE 4.1 9.9----30.08- 78.6 79.5----
2024-07-12 07:00 amESE 5.1 9.9----30.07+0.04 78.6 79.5----
2024-07-12 06:54 am NE 4.1 6.0----30.07- 78.4 79.5----
2024-07-12 06:48 am N 1.0 7.0----30.07- 78.3 79.5----
2024-07-12 06:42 amENE 4.1 8.9----30.06- 78.3 79.5----
2024-07-12 06:36 amENE 2.9 6.0----30.06- 78.3 79.5----
2024-07-12 06:30 amENE 6.0 9.9----30.06- 78.4 79.5----
2024-07-12 06:24 am E 5.1 9.9----30.06- 78.3 79.5----
2024-07-12 06:18 am E 6.0 14.0----30.06- 78.3 79.5----
2024-07-12 06:12 am E 2.9 8.0----30.06- 78.1 79.5----
2024-07-12 06:06 am NE 2.9 6.0----30.06- 78.1 79.5----
2024-07-12 06:00 amENE 4.1 6.0----30.05+0.01 78.1 79.5----
2024-07-12 05:54 am N 1.9 2.9----30.05- 77.9 79.5----
2024-07-12 05:48 amENE 4.1 5.1----30.05- 77.9 79.5----
2024-07-12 05:42 am NE 1.0 4.1----30.05- 77.7 79.5----
2024-07-12 05:36 am NE 2.9 5.1----30.05- 77.7 79.5----
2024-07-12 05:30 am NE 2.9 5.1----30.05- 77.9 79.5----
2024-07-12 05:24 amESE 6.0 8.0----30.04- 78.3 79.5----
2024-07-12 05:18 amENE 1.9 6.0----30.04- 78.1 79.5----
2024-07-12 05:12 amENE 2.9 11.1----30.04- 78.1 79.5----
2024-07-12 05:06 amENE 4.1 9.9----30.04- 78.3 79.5----
2024-07-12 05:00 am NE 6.0 8.9----30.04-0.01 78.1 79.5----
2024-07-12 04:54 am E 2.9 8.0----30.04- 78.1 79.5----
2024-07-12 04:48 am E 5.1 11.1----30.04- 78.1 79.5----
2024-07-12 04:42 am E 6.0 11.1----30.04- 78.3 79.5----
2024-07-12 04:36 am E 6.0 11.1----30.04- 78.3 79.5----
2024-07-12 04:30 am NE 7.0 11.1----30.03- 78.4 79.5----
2024-07-12 04:24 amENE 5.1 9.9----30.03- 78.3 79.5----
2024-07-12 04:18 am E 5.1 9.9----30.03- 78.1 79.5----
2024-07-12 04:12 amENE 6.0 9.9----30.03- 78.3 79.5----
2024-07-12 04:06 am NE 2.9 11.1----30.03- 78.3 79.5----
2024-07-12 04:00 am NE 5.1 11.1----30.03-0.02 78.1 79.5----
2024-07-12 03:54 am E 5.1 12.0----30.03- 78.1 79.5----
2024-07-12 03:48 amENE 5.1 9.9----30.03- 78.3 79.5----
2024-07-12 03:42 am E 5.1 9.9----30.03- 78.1 79.5----
2024-07-12 03:36 am E 5.1 12.0----30.03- 78.1 79.5----
2024-07-12 03:30 amENE 8.9 13.0----30.03- 78.1 79.5----
2024-07-12 03:24 am E 5.1 12.0----30.03- 78.3 79.5----
2024-07-12 03:18 amENE 6.0 8.9----30.03- 78.4 79.5----
2024-07-12 03:12 am NE 5.1 11.1----30.03- 78.3 79.5----
2024-07-12 03:06 am E 4.1 11.1----30.03- 78.3 79.5----
2024-07-12 03:00 amESE 5.1 12.0----30.04-0.02 78.3 79.5----
2024-07-12 02:54 am E 5.1 11.1----30.04- 78.3 79.5----
2024-07-12 02:48 am E 5.1 11.1----30.04- 78.3 79.5----
2024-07-12 02:42 amENE 4.1 8.9----30.04- 78.1 79.5----
2024-07-12 02:36 am NE 2.9 7.0----30.04- 78.1 79.5----
2024-07-12 02:30 am NE 5.1 9.9----30.05- 78.1 79.5----
2024-07-12 02:24 am NE 2.9 8.0----30.05- 78.1 79.5----
2024-07-12 02:18 amENE 7.0 14.0----30.05- 78.3 79.5----
2024-07-12 02:12 am NE 6.0 14.0----30.05- 78.1 79.5----
2024-07-12 02:06 am NE 8.0 12.0----30.04- 78.3 79.5----
2024-07-12 02:00 amENE 7.0 21.0----30.05-0.01 77.9 79.5----
2024-07-12 01:54 amENE 8.0 14.0----30.05- 78.1 79.5----
2024-07-12 01:48 amENE 7.0 11.1----30.05-- 79.5----
2024-07-12 01:42 amENE 7.0 15.9----30.05-- 79.7----
2024-07-12 01:36 amENE 11.1 15.9----30.05-- 79.7----
2024-07-12 01:30 amENE 6.0 13.0----30.05- 77.5 79.5----
2024-07-12 01:24 amENE 6.0 8.9----30.05- 77.7 79.7----
2024-07-12 01:18 am E 2.9 9.9----30.05- 77.5 79.7----
2024-07-12 01:12 amENE 2.9 15.0----30.05- 77.7 79.7----
2024-07-12 01:06 am E 5.1 15.0----30.06- 77.7 79.7----
2024-07-12 01:00 am E 6.0 15.0----30.06+0.01 77.7 79.7----
2024-07-12 12:54 amESE 5.1 17.1----30.05- 77.7 79.7----
2024-07-12 12:48 amENE 6.0 9.9----30.05- 77.7 79.7----
2024-07-12 12:42 amENE 5.1 12.0----30.05- 77.7 79.7----
2024-07-12 12:36 amESE 7.0 12.0----30.05- 77.7 79.7----
2024-07-12 12:30 amENE 6.0 15.0----30.05- 77.9 79.7----
2024-07-12 12:24 am E 2.9 15.0----30.05- 77.9 79.7----
2024-07-12 12:18 amENE 2.9 9.9----30.06- 77.9 79.7----
2024-07-12 12:12 amENE 6.0 11.1----30.05- 77.9 79.7----
2024-07-12 12:06 amENE 7.0 17.1----30.06- 77.9 79.7----
2024-07-12 12:00 amENE 7.0 15.0----30.06+0.03 77.9 79.7----
2024-07-11 11:54 pmENE 6.0 11.1----30.06- 77.9 79.7----